Tracking 21094 objects as of 11-Aug-2020
HD Live streaming from Space Station
objects crossing your sky now
Track the most recent launched group of Starlink satellites

INTASAT

Track INTASAT now!
10-day predictions
INTASAT is classified as:


NORAD ID: 7531
Int'l Code: 1974-089C
Perigee: 1,448.6 km
Apogee: 1,465.6 km
Inclination: 101.8 °
Period: 114.9 minutes
Semi major axis: 7828 km
RCS: 0.5293 m2 (medium)
Launch date: November 15, 1974
Source: Spain (SPN)
Launch site: AIR FORCE WESTERN TEST RANGE (AFWTR)
aabbcc
Your satellite tracking list
Your tracking list is empty




NASA's NSSDC Master Catalog

Two Line Element Set (TLE):
1  7531U 74089C   20224.17353308 -.00000063 +00000-0 -11347-3 0  9994
2  7531 101.8031 193.5009 0010851 270.0849 101.1241 12.53482066092642
Source of the keplerian elements: AFSPC